Regional Weather Roundup
Issued by NWS Sterling, VA

Home | Current Version | Previous Version | Graphics & Text | Print | Product List | Glossary On
Versions: 1 2 3 4 5 6 7 8 9 10 11 12 13 14 15 16 17 18 19 20 21 22 23 24 25 26 27 28 29 30 31 32 33 34 35 36 37 38 39 40 41 42 43 44 45 46 47 48 49 50
000
ASUS41 KLWX 101410
RWRLWX

REGIONAL WEATHER ROUNDUP
NATIONAL WEATHER SERVICE BALTIMORE MD/WASHINGTON DC
1000 AM EDT THU JUL 10 2014

Note: "FAIR" indicates few or no clouds below 12,000 feet
with no significant weather and/or obstructions to visibility.
 TC=TEMPERATURE CELSIUS

 * =Non NWS site. Station does not report precipitation (e.g. rain,
    snow, etc.), thunder, or fog.

DCZ001-MDZ009-015-VAZ040>042-051-053>054-101500-
WASHINGTON METRO

CITY           SKY/WX    TMP DP  RH WIND       PRES   REMARKS
WASHINGTON NAT CLOUDY    79  69  71 NW3       30.07R
DULLES         PTSUNNY   76  67  73 CALM      30.08R
ANDREWS AFB    CLOUDY    76  71  84 NE3       30.07R
FT BELVOIR     CLOUDY    76  70  81 VRB2      30.07R
QUANTICO       CLOUDY    75  69  81 CALM      30.07S
COLLEGE PARK*  CLOUDY    77  70  78 N3        30.06R
LEESBURG*      MOSUNNY   77  70  78 NE5       30.09R
GAITHERSBURG*  MOSUNNY   75  70  83 N3        30.12R

$$

MDZ006>007-011-014-101500-
BALTIMORE METRO

CITY           SKY/WX    TMP DP  RH WIND       PRES   REMARKS
BWI AIRPORT    PTSUNNY   78  69  73 NE6       30.06S
MD SCIENCE CTR   N/A     79  68  69 MISG      30.06S
MARTIN STATE   PTSUNNY   79  73  83 N3        30.07S
ANNAPOLIS      CLOUDY    77  70  79 NE5       30.06R
FORT MEADE*    PTSUNNY   75  68  78 N3        30.09R

$$

MDZ012-015-019>023-101500-
MARYLAND EASTERN SHORE

CITY           SKY/WX    TMP DP  RH WIND       PRES   REMARKS
OCEAN CITY     CLOUDY    74  71  91 VRB6      30.08R FOG
SALISBURY      CLOUDY    79  73  82 S7        30.07R HAZE
BAY BRIDGE AP*   N/A     75  70  83 CALM      30.06S
CAMBRIDGE*     CLOUDY    79  70  73 S3        30.06R
EASTON*        CLOUDY    77  77 100 NW5       30.10R

$$

MDZ017>025-101500-
SOUTHERN MARYLAND

CITY           SKY/WX    TMP DP  RH WIND       PRES   REMARKS
PATUXENT RIVER CLOUDY    76  70  82 SW5       30.05F
ST INIGOES     CLOUDY    77  69  76 SW5       30.06S
LEONARDTOWN*   CLOUDY    77  68  73 W3        30.07F

$$

MDZ003>005-101500-
NORTH CENTRAL MARYLAND

CITY           SKY/WX    TMP DP  RH WIND       PRES   REMARKS
FREDERICK*     SUNNY     77  70  78 NE8       30.11S
HAGERSTOWN APT SUNNY     77  63  61 NE6       30.10S
WESTMINSTER*   MOSUNNY   77  68  73 NE6       30.10S

$$

MDZ501>502-101500-
WESTERN MARYLAND

CITY           SKY/WX    TMP DP  RH WIND       PRES   REMARKS
OAKLAND*       SUNNY     70  54  56 CALM      30.18S
CUMBERLAND*    SUNNY     79  61  53 CALM      30.15S

$$

VAZ025>031-101500-
SHENANDOAH VALLEY

CITY           SKY/WX    TMP DP  RH WIND       PRES   REMARKS
WINCHESTER*    SUNNY     77  63  61 NE3       30.10S
STAUNTON*      PTSUNNY   71  62  72 CALM      30.13S

$$

WVZ021-048>050-054>055-101500-
EASTERN WEST VIRGINIA PANHANDLE

CITY           SKY/WX    TMP DP  RH WIND       PRES   REMARKS
MARTINSBURG    SUNNY     78  61  55 N3        30.10S
PETERSBURG*    PTSUNNY   72  58  62 CALM      30.12S

$$

VAZ036>039-050-101500-
CENTRAL FOOTHILLS

CITY           SKY/WX    TMP DP  RH WIND       PRES   REMARKS
CHARLOTTESVILL PTSUNNY   73  69  87 NE3       30.09R
ORANGE*        PTSUNNY   73  70  88 NW5       30.10S

$$

VAZ055>057-101500-
NORTH AND CENTRAL PIEDMONT

CITY           SKY/WX    TMP DP  RH WIND       PRES   REMARKS
FREDERICKSBRG* CLOUDY    76  69  79 CALM      30.06F
STAFFORD*      CLOUDY    74  74 100 NW5       30.11S

$$

NCZ024-NYZ072-PAZ021-071-VAZ022-071-101500-
OTHER REGIONAL OBSERVATIONS

CITY           SKY/WX    TMP DP  RH WIND       PRES   REMARKS
NEW YORK CITY  PTSUNNY   74  63  68 VRB5      30.13R
PHILADELPHIA   CLOUDY    78  60  53 NE12      30.09R
PITTSBURGH     PTSUNNY   70  60  70 E6        30.12S
ROANOKE        PTSUNNY   74  68  81 SW5       30.13S
RICHMOND       LGT RAIN  76  70  82 SW6       30.08R
RALEIGH        CLOUDY    79  72  79 SW5       30.09R

$$

ANZ530>537-101500-
MARINE OBSERVATIONS

STATION/POSITION TIME  TEMP    WIND        PRES
                       AIR SEA DIR/SP/G
                 (UTC) (F)     (DEG/KT/KT) (MB)
THOMAS PT LIGHT  1400   75 78   60/  3/  3 1018.5R
BALT KEY BRIDGE  1400   76      20/  6/  7 1017.5S
COVE POINT       1400   76     280/  5/  6 1017.8S
LEWISETTA        1400   76 80  270/  6/  7 1017.9R
SOLOMONS ISLAND  1400      79                N/A
PINEY POINT      1400          300/  5/  6   N/A

$$



USA.gov is the U.S. government's official web portal to all federal, state and local government web resources and services.